Flag for South Korea Weather past 2 weeks in Gunsan, South Korea

Now
46 °F

Clear.


Feels Like: 40 °F
Forecast: 34 / 57 °F
Wind: 10 mph from Northwest

Location: Kunsan Ab

Current Time: Mar 27, 2015 at 7:41:57 PM

Latest Report: Mar 27, 2015 at 6:58 PM


Visibility: 10 mi

Pressure: 30.25 "Hg

Humidity: 50%

Dew point: 28 °F

Location of GunsanLocation

Historic Weather in Gunsan — Graph

°F

Gunsan temperature yesterday

Maximum temperature yesterday: 54 °F (at 11:58 AM)
Minimum temperature yesterday: 31 °F (at 6:58 AM)
Average temperature yesterday: 43 °F

Past Weeks' High & Low Weather Summary

 TemperatureHumidityPressure
High63 °F (Mar 17, 3:58 PM)100% (Mar 18, 9:58 AM)30.61 "Hg (Mar 18, 9:58 AM)
Low28 °F (Mar 14, 2:58 AM)28% (Mar 16, 12:58 PM)29.70 "Hg (Mar 18, 4:58 PM)
Average44 °F72%30.20 "Hg
* Reported Mar 12 5:58 PM — Mar 27 5:58 PM, Gunsan, Weather by CustomWeather, © 2015

Note: Actual official high and low records may vary slightly from our data, if they occured in-between our weather recording intervals... More about our weather records

Advertising

Gunsan weather history for previous 24 hours

 ConditionsComfort  
Time TempWeatherWind HumidityBarometerVisibility
5:58 PM
Fri, Mar 27
51 °FSunny.9 mph43%30.26 "Hg10 mi
4:58 PM55 °FSunny.9 mph28%30.26 "Hg10 mi
3:58 PM53 °FSunny.9 mph51%30.27 "Hg10 mi
2:58 PM55 °FScattered clouds.12 mph44%30.29 "Hg10 mi
1:58 PM53 °FPartly sunny.9 mph39%30.31 "Hg10 mi
12:58 PM52 °FPassing clouds.8 mph44%30.35 "Hg10 mi
11:58 AM50 °FBroken clouds.7 mph55%30.37 "Hg10 mi
10:58 AM52 °FPassing clouds.1 mph31%30.39 "Hg10 mi
9:58 AM49 °FSunny.2 mph43%30.41 "Hg10 mi
8:58 AM43 °FSunny.3 mph71%30.41 "Hg10 mi
7:58 AM38 °FSunny.2 mphN/A30.42 "Hg9 mi
6:58 AM33 °FSunny.6 mph82%30.40 "Hg10 mi
5:58 AM33 °FClear.5 mph81%30.41 "Hg10 mi
4:58 AM33 °FClear.5 mph84%30.41 "Hg10 mi
3:58 AM34 °FClear.3 mph83%30.43 "Hg10 mi
2:58 AM35 °FClear.6 mph82%30.45 "Hg10 mi
1:58 AM36 °FClear.6 mph77%30.46 "Hg10 mi
12:58 AM36 °FClear.5 mph65%30.46 "Hg10 mi
11:58 PM
Thu, Mar 26
39 °FClear.5 mph58%30.47 "Hg10 mi
10:58 PM41 °FClear.7 mph57%30.48 "Hg10 mi
9:58 PM43 °FClear.8 mph49%30.48 "Hg10 mi
8:58 PM43 °FClear.8 mph61%30.48 "Hg10 mi
7:58 PM44 °FClear.9 mph54%30.48 "Hg10 mi
Weather by CustomWeather, © 2015

See weather overviewHow to use our weather pages